Notices

What's New in latest Release from April 7th, 2021:

- Updated Glossary, including Speed of Maximum Gust, and Total Hourly Precipitation

- Updated national and regional climate services offices contacts and prices information

- Addition of station inventory lists for 1981-2010, 1971-2000, and 1961-1990 Normals.

If you haven't already, please take our survey and provide feedback about our website: https://eccc.sondage-survey.ca/f/LanguageSelection.aspx?s=442ca660-fcf1-47c0-95a9-59707d6fd709

Hourly Data Report for August 24, 2003

TORONTO CITY
ONTARIO

43°40'00.000" N
79°24'00.000" W
112.50 m
6158355
71508
XTO

Download Data

Hourly Data (August 2003)
Hourly Data Report for August 24, 2003
TIME
LST
Temp Definition
°C
Dew Point Definition
°C
Rel Hum Definition
%
Precip. Amount Definition
mm

Wind Dir Definition
10's deg

Wind Spd Definition
km/h
Visibility Definition
km
Stn Press Definition
kPa
Hmdx Definition


Wind Chill Definition


Weather Definition


00:00 16.4 8.7 60   LegendMM LegendMM LegendMM 100.66     LegendNANA
01:00 14.6 8.5 67   LegendMM LegendMM LegendMM 100.67     LegendNANA
02:00 14.3 9.0 70   LegendMM LegendMM LegendMM 100.67     LegendNANA
03:00 14.3 9.1 71   LegendMM LegendMM LegendMM 100.67     LegendNANA
04:00 14.2 9.7 74   LegendMM LegendMM LegendMM 100.71     LegendNANA
05:00 14.4 10.4 77   LegendMM LegendMM LegendMM 100.72     LegendNANA
06:00 14.4 10.9 79   LegendMM LegendMM LegendMM 100.77     LegendNANA
07:00 15.7 10.2 70   LegendMM LegendMM LegendMM 100.77     LegendNANA
08:00 18.0 7.3 50   LegendMM LegendMM LegendMM 100.77     LegendNANA
09:00 20.0 7.7 45   LegendMM LegendMM LegendMM 100.79     LegendNANA
10:00 21.8 8.3 42   LegendMM LegendMM LegendMM 100.76     LegendNANA
11:00 22.0 9.5 45   LegendMM LegendMM LegendMM 100.67     LegendNANA
12:00 23.2 11.3 47   LegendMM LegendMM LegendMM 100.59 25   LegendNANA
13:00 24.3 10.2 41   LegendMM LegendMM LegendMM 100.50 26   LegendNANA
14:00 23.6 11.0 45   LegendMM LegendMM LegendMM 100.45 25   LegendNANA
15:00 23.2 11.3 47   LegendMM LegendMM LegendMM 100.31 25   LegendNANA
16:00 22.8 12.4 52   LegendMM LegendMM LegendMM 100.22 25   LegendNANA
17:00 22.8 13.5 56   LegendMM LegendMM LegendMM 100.24 26   LegendNANA
18:00 23.0 10.4 45   LegendMM LegendMM LegendMM 100.20     LegendNANA
19:00 22.4 8.9 42   LegendMM LegendMM LegendMM 100.05     LegendNANA
20:00 21.8 11.7 53   LegendMM LegendMM LegendMM 100.08     LegendNANA
21:00 21.1 14.4 66   LegendMM LegendMM LegendMM 100.07 25   LegendNANA
22:00 21.2 14.2 64   LegendMM LegendMM LegendMM 100.03 25   LegendNANA
23:00 20.8 14.7 68   LegendMM LegendMM LegendMM 100.00 25   LegendNANA

Notes on Data Quality.

Legend

  • E = Estimated
  • M = Missing
  • NA = Not Available*
  • [empty] = Indicates an unobserved value
Date modified: